EDW113 LTFM-LSZH

Flight info

Callsign EDW113
Flight time 2h 29m
Altitude 40000
Route VADEN1G/17R VADEN L610 UTEKA DCT OSVIX DCT TUVAR DCT ADULA DCT BEDOX DCT DIPSA DCT ERKIR L608 KPT L856 NEGRA
Aircraft A346/H-SDFGRWY/C

Departure

Time 2026-04-26 13:28
Airport İstanbul Airport (LTFM)

Arrival

Time 2026-04-26 15:57
Airport Zürich Airport (LSZH)
Time Latitude Longitude Altitude Speed Heading
2026-04-26 12:35 41.26572 28.73774 343 ft 0 kts 269°
2026-04-26 13:05 41.26572 28.73785 343 ft 2 kts 269°
2026-04-26 13:05 41.26574 28.73805 343 ft 2 kts 257°
2026-04-26 13:06 41.26578 28.73823 343 ft 2 kts 243°
2026-04-26 13:06 41.26586 28.73841 343 ft 2 kts 232°
2026-04-26 13:06 41.26596 28.73855 343 ft 2 kts 220°
2026-04-26 13:06 41.26608 28.73867 343 ft 2 kts 208°
2026-04-26 13:07 41.26622 28.73875 343 ft 2 kts 197°
2026-04-26 13:07 41.26636 28.73879 343 ft 2 kts 185°
2026-04-26 13:07 41.26645 28.73879 343 ft 1 kts 179°
2026-04-26 13:07 41.26646 28.73879 343 ft 0 kts 179°
2026-04-26 13:11 41.26636 28.73880 343 ft 3 kts 179°
2026-04-26 13:12 41.26601 28.73881 343 ft 6 kts 174°
2026-04-26 13:12 41.26566 28.73914 343 ft 7 kts 111°
2026-04-26 13:12 41.26557 28.73989 343 ft 5 kts 82°
2026-04-26 13:12 41.26599 28.74025 343 ft 9 kts
2026-04-26 13:13 41.26678 28.74022 343 ft 12 kts 355°
2026-04-26 13:13 41.26776 28.74022 343 ft 15 kts
2026-04-26 13:13 41.26876 28.74020 343 ft 12 kts 359°
2026-04-26 13:13 41.26952 28.74019 343 ft 12 kts
2026-04-26 13:14 41.26972 28.74019 343 ft 0 kts
2026-04-26 13:14 41.26983 28.74019 343 ft 3 kts
2026-04-26 13:14 41.27024 28.74020 343 ft 4 kts
2026-04-26 13:15 41.27048 28.73999 343 ft 5 kts 291°
2026-04-26 13:15 41.27052 28.73927 343 ft 9 kts 270°
2026-04-26 13:15 41.27052 28.73822 343 ft 12 kts 268°
2026-04-26 13:15 41.27049 28.73696 343 ft 14 kts 269°
2026-04-26 13:16 41.27047 28.73552 343 ft 16 kts 269°
2026-04-26 13:16 41.27047 28.73417 343 ft 12 kts 270°
2026-04-26 13:16 41.27046 28.73291 343 ft 14 kts 269°
2026-04-26 13:16 41.27045 28.73217 343 ft 0 kts 269°
2026-04-26 13:18 41.27045 28.73196 343 ft 4 kts 269°
2026-04-26 13:18 41.27058 28.73115 343 ft 5 kts 342°
2026-04-26 13:19 41.27111 28.73111 343 ft 9 kts 358°
2026-04-26 13:19 41.27191 28.73108 343 ft 13 kts 359°
2026-04-26 13:19 41.27296 28.73108 343 ft 16 kts 360°
2026-04-26 13:19 41.27401 28.73107 343 ft 14 kts 359°
2026-04-26 13:20 41.27512 28.73105 343 ft 16 kts 359°
2026-04-26 13:20 41.27571 28.73095 343 ft 6 kts 324°
2026-04-26 13:20 41.27600 28.73023 343 ft 10 kts 304°
2026-04-26 13:20 41.27671 28.72985 343 ft 12 kts 358°
2026-04-26 13:21 41.27769 28.72983 343 ft 15 kts 359°
2026-04-26 13:21 41.27845 28.72982 343 ft 16 kts 359°
2026-04-26 13:21 41.28008 28.72979 343 ft 18 kts 360°
2026-04-26 13:21 41.28140 28.72977 343 ft 17 kts 359°
2026-04-26 13:22 41.28258 28.72975 343 ft 16 kts 359°
2026-04-26 13:22 41.28376 28.72971 343 ft 17 kts 359°
2026-04-26 13:22 41.28505 28.72969 343 ft 19 kts 359°
2026-04-26 13:22 41.28643 28.72966 343 ft 20 kts 359°
2026-04-26 13:23 41.28791 28.72963 343 ft 18 kts 359°
2026-04-26 13:23 41.28908 28.72959 343 ft 17 kts 359°
2026-04-26 13:23 41.29036 28.72956 343 ft 19 kts 359°
2026-04-26 13:23 41.29169 28.72954 343 ft 19 kts 360°
2026-04-26 13:24 41.29310 28.72950 343 ft 20 kts 359°
2026-04-26 13:24 41.29426 28.72948 343 ft 11 kts 359°
2026-04-26 13:24 41.29476 28.72925 343 ft 4 kts 302°
2026-04-26 13:24 41.29479 28.72918 343 ft 0 kts 297°
2026-04-26 13:25 41.29484 28.72904 343 ft 3 kts 293°
2026-04-26 13:25 41.29494 28.72852 343 ft 7 kts 278°
2026-04-26 13:25 41.29494 28.72765 343 ft 11 kts 269°
2026-04-26 13:25 41.29493 28.72650 343 ft 13 kts 269°
2026-04-26 13:26 41.29491 28.72538 343 ft 7 kts 269°
2026-04-26 13:26 41.29483 28.72481 343 ft 6 kts 239°
2026-04-26 13:26 41.29436 28.72458 343 ft 5 kts 181°
2026-04-26 13:26 41.29431 28.72458 343 ft 0 kts 181°
2026-04-26 13:27 41.29419 28.72458 343 ft 13 kts 181°
2026-04-26 13:27 41.29044 28.72468 343 ft 91 kts 180°
2026-04-26 13:27 41.28177 28.72484 343 ft 154 kts 180°
2026-04-26 13:28 41.26989 28.72516 616 ft 179 kts 181°
2026-04-26 13:28 41.25749 28.72552 1219 ft 183 kts 181°
2026-04-26 13:28 41.24461 28.72620 1923 ft 188 kts 180°
2026-04-26 13:28 41.23145 28.72693 2468 ft 196 kts 179°
2026-04-26 13:29 41.21738 28.72774 2826 ft 212 kts 179°
2026-04-26 13:29 41.20731 28.72696 3055 ft 222 kts 193°
2026-04-26 13:29 41.18896 28.71273 3504 ft 246 kts 232°
2026-04-26 13:29 41.18133 28.69186 3999 ft 260 kts 261°
2026-04-26 13:30 41.18046 28.66778 4639 ft 263 kts 269°
2026-04-26 13:30 41.18041 28.64365 4971 ft 263 kts 271°
2026-04-26 13:30 41.18029 28.61900 5456 ft 271 kts 271°
2026-04-26 13:30 41.18299 28.59498 6401 ft 268 kts 296°
2026-04-26 13:31 41.19422 28.57543 7355 ft 268 kts 313°
2026-04-26 13:31 41.20699 28.55753 8241 ft 271 kts 312°
2026-04-26 13:31 41.21963 28.53931 9083 ft 275 kts 311°
2026-04-26 13:31 41.23251 28.52029 9947 ft 278 kts 311°
2026-04-26 13:32 41.24528 28.50124 10696 ft 285 kts 310°
2026-04-26 13:32 41.25871 28.48089 11150 ft 302 kts 310°
2026-04-26 13:32 41.27290 28.45923 11555 ft 320 kts 310°
2026-04-26 13:32 41.28786 28.43635 11944 ft 339 kts 310°
2026-04-26 13:33 41.30359 28.41223 12318 ft 357 kts 310°
2026-04-26 13:33 41.32007 28.38694 12925 ft 367 kts 310°
2026-04-26 13:33 41.33672 28.36135 13747 ft 370 kts 310°
2026-04-26 13:33 41.35352 28.33541 14547 ft 373 kts 310°
2026-04-26 13:34 41.37061 28.30893 15286 ft 378 kts 310°
2026-04-26 13:34 41.38765 28.28253 16016 ft 382 kts 310°
2026-04-26 13:34 41.40507 28.25555 16749 ft 386 kts 310°
2026-04-26 13:34 41.41679 28.23740 17227 ft 389 kts 310°
2026-04-26 13:35 41.44024 28.20105 18152 ft 394 kts 310°
2026-04-26 13:35 41.45805 28.17346 18827 ft 397 kts 310°
2026-04-26 13:35 41.47624 28.14536 19416 ft 403 kts 310°
2026-04-26 13:35 41.49453 28.11706 20027 ft 407 kts 310°
2026-04-26 13:36 41.51296 28.08846 20661 ft 411 kts 310°
2026-04-26 13:36 41.53176 28.05927 21287 ft 414 kts 310°
2026-04-26 13:36 41.55048 28.03015 21887 ft 418 kts 310°
2026-04-26 13:36 41.56954 28.00045 22481 ft 421 kts 310°
2026-04-26 13:37 41.58850 27.97089 23052 ft 425 kts 310°
2026-04-26 13:37 41.60771 27.94089 23606 ft 428 kts 310°
2026-04-26 13:37 41.62693 27.91085 24147 ft 432 kts 310°
2026-04-26 13:37 41.64655 27.88019 24661 ft 435 kts 310°
2026-04-26 13:38 41.66613 27.84950 25169 ft 439 kts 310°
2026-04-26 13:38 41.68623 27.81798 25687 ft 442 kts 310°
2026-04-26 13:38 41.70605 27.78686 26163 ft 446 kts 309°
2026-04-26 13:38 41.72625 27.75513 26617 ft 450 kts 309°
2026-04-26 13:39 41.74646 27.72332 27091 ft 453 kts 309°
2026-04-26 13:39 41.76704 27.69091 27565 ft 456 kts 309°
2026-04-26 13:39 41.78748 27.65877 28053 ft 458 kts 309°
2026-04-26 13:39 41.80815 27.62609 28594 ft 458 kts 309°
2026-04-26 13:40 41.82849 27.59386 29228 ft 456 kts 309°
2026-04-26 13:40 41.84908 27.56123 29898 ft 454 kts 309°
2026-04-26 13:40 41.86916 27.52939 30509 ft 452 kts 309°
2026-04-26 13:40 41.88930 27.49732 31125 ft 449 kts 309°
2026-04-26 13:41 41.90946 27.46537 31736 ft 447 kts 309°
2026-04-26 13:41 41.92947 27.43365 32296 ft 445 kts 309°
2026-04-26 13:41 41.94926 27.40223 32817 ft 444 kts 309°
2026-04-26 13:41 41.96927 27.37037 33330 ft 443 kts 309°
2026-04-26 13:42 41.98889 27.33905 33825 ft 442 kts 309°
2026-04-26 13:42 42.00867 27.30734 34322 ft 440 kts 308°
2026-04-26 13:42 42.02816 27.27611 34788 ft 439 kts 308°
2026-04-26 13:42 42.04707 27.24429 35236 ft 438 kts 306°
2026-04-26 13:43 42.06495 27.21094 35673 ft 436 kts 303°
2026-04-26 13:43 42.08134 27.17681 36090 ft 435 kts 300°
2026-04-26 13:43 42.09649 27.14173 36482 ft 433 kts 298°
2026-04-26 13:43 42.11116 27.10665 36844 ft 433 kts 298°
2026-04-26 13:44 42.12601 27.07116 37195 ft 432 kts 298°
2026-04-26 13:44 42.14067 27.03596 37523 ft 431 kts 298°
2026-04-26 13:44 42.15521 27.00095 37831 ft 430 kts 298°
2026-04-26 13:44 42.16975 26.96581 38124 ft 429 kts 298°
2026-04-26 13:45 42.18429 26.93059 38378 ft 430 kts 298°
2026-04-26 13:45 42.19867 26.89568 38594 ft 430 kts 298°
2026-04-26 13:45 42.21308 26.86067 38770 ft 431 kts 298°
2026-04-26 13:45 42.22759 26.82534 38934 ft 433 kts 298°
2026-04-26 13:46 42.24222 26.78962 39166 ft 431 kts 298°
2026-04-26 13:46 42.25658 26.75455 39453 ft 429 kts 298°
2026-04-26 13:46 42.27096 26.71946 39643 ft 429 kts 298°
2026-04-26 13:46 42.28546 26.68405 39763 ft 430 kts 298°
2026-04-26 13:47 42.29989 26.64867 39867 ft 431 kts 297°
2026-04-26 13:47 42.32871 26.57781 39880 ft 433 kts 297°
2026-04-26 13:48 42.35754 26.50684 39883 ft 433 kts 298°
2026-04-26 13:48 42.38658 26.43518 39884 ft 433 kts 298°
2026-04-26 13:49 42.41544 26.36381 39884 ft 433 kts 298°
2026-04-26 13:49 42.44400 26.29282 39885 ft 433 kts 297°
2026-04-26 13:50 42.47277 26.22113 39885 ft 432 kts 297°
2026-04-26 13:50 42.50124 26.15011 39884 ft 432 kts 297°
2026-04-26 13:51 42.52992 26.07847 39884 ft 432 kts 297°
2026-04-26 13:51 42.55842 26.00711 39884 ft 432 kts 297°
2026-04-26 13:52 42.58693 25.93555 39884 ft 432 kts 297°
2026-04-26 13:52 42.61550 25.86369 39913 ft 432 kts 297°
2026-04-26 13:53 42.64373 25.79249 39945 ft 432 kts 297°
2026-04-26 13:53 42.67220 25.72053 39959 ft 432 kts 297°
2026-04-26 13:54 42.70047 25.64883 39964 ft 432 kts 297°
2026-04-26 13:54 42.72882 25.57681 39965 ft 432 kts 297°
2026-04-26 13:55 42.76635 25.48117 39966 ft 431 kts 297°
2026-04-26 13:56 42.81304 25.36175 39965 ft 429 kts 297°
2026-04-26 13:56 42.84091 25.29002 39966 ft 429 kts 297°
2026-04-26 13:57 42.86868 25.21838 39966 ft 429 kts 297°
2026-04-26 13:57 42.89642 25.14670 39965 ft 429 kts 297°
2026-04-26 13:58 42.92419 25.07492 39965 ft 429 kts 297°
2026-04-26 13:58 42.95191 25.00308 39965 ft 429 kts 297°
2026-04-26 13:59 42.97958 24.93118 39965 ft 429 kts 297°
2026-04-26 13:59 43.00729 24.85900 39965 ft 430 kts 297°
2026-04-26 14:00 43.06274 24.71399 39965 ft 430 kts 297°
2026-04-26 14:01 43.09017 24.64192 39965 ft 430 kts 297°
2026-04-26 14:01 43.11789 24.56935 39966 ft 430 kts 297°
2026-04-26 14:02 43.14560 24.49690 39966 ft 430 kts 297°
2026-04-26 14:02 43.17303 24.42467 39966 ft 430 kts 297°
2026-04-26 14:03 43.20041 24.35217 39966 ft 430 kts 297°
2026-04-26 14:03 43.22773 24.27934 39966 ft 430 kts 296°
2026-04-26 14:04 43.25489 24.20670 39964 ft 430 kts 297°
2026-04-26 14:04 43.28215 24.13360 39965 ft 433 kts 297°
2026-04-26 14:05 43.30953 24.06026 39965 ft 434 kts 297°
2026-04-26 14:05 43.33692 23.98669 39965 ft 434 kts 297°
2026-04-26 14:06 43.36439 23.91269 39965 ft 434 kts 297°
2026-04-26 14:06 43.39160 23.83920 39996 ft 433 kts 297°
2026-04-26 14:07 43.41884 23.76541 40024 ft 433 kts 297°
2026-04-26 14:07 43.44585 23.69206 40035 ft 432 kts 297°
2026-04-26 14:08 43.47295 23.61828 40038 ft 432 kts 297°
2026-04-26 14:08 43.49981 23.54494 40039 ft 432 kts 297°
2026-04-26 14:09 43.52683 23.47096 40039 ft 432 kts 297°
2026-04-26 14:09 43.55370 23.39721 40039 ft 432 kts 297°
2026-04-26 14:10 43.58058 23.32317 40041 ft 432 kts 296°
2026-04-26 14:10 43.60732 23.24913 40040 ft 432 kts 296°
2026-04-26 14:11 43.64728 23.13830 40039 ft 432 kts 297°
2026-04-26 14:11 43.67402 23.06401 40039 ft 432 kts 297°
2026-04-26 14:12 43.70066 22.98981 40039 ft 432 kts 297°
2026-04-26 14:12 43.71394 22.95275 40039 ft 432 kts 297°
2026-04-26 14:13 43.76523 22.80905 40061 ft 432 kts 297°
2026-04-26 14:14 43.79171 22.73463 40081 ft 431 kts 297°
2026-04-26 14:14 43.81799 22.66063 40091 ft 431 kts 297°
2026-04-26 14:15 43.84437 22.58607 40094 ft 431 kts 297°
2026-04-26 14:15 43.87054 22.51180 40095 ft 431 kts 297°
2026-04-26 14:16 43.89675 22.43719 40095 ft 431 kts 297°
2026-04-26 14:16 43.92308 22.36300 40095 ft 431 kts 298°
2026-04-26 14:17 43.95027 22.28915 40096 ft 431 kts 297°
2026-04-26 14:17 43.97738 22.21528 40096 ft 431 kts 297°
2026-04-26 14:18 44.00438 22.14145 40095 ft 434 kts 297°
2026-04-26 14:18 44.03170 22.06646 40096 ft 434 kts 297°
2026-04-26 14:19 44.05878 21.99191 40096 ft 435 kts 297°
2026-04-26 14:19 44.08590 21.91708 40096 ft 435 kts 297°
2026-04-26 14:20 44.11309 21.84205 40097 ft 434 kts 297°
2026-04-26 14:20 44.14034 21.76715 40096 ft 434 kts 297°
2026-04-26 14:21 44.16724 21.69261 40096 ft 433 kts 297°
2026-04-26 14:21 44.19400 21.61800 40096 ft 432 kts 297°
2026-04-26 14:22 44.22072 21.54321 40096 ft 432 kts 297°
2026-04-26 14:22 44.24744 21.46817 40096 ft 432 kts 297°
2026-04-26 14:23 44.27420 21.39272 40095 ft 434 kts 297°
2026-04-26 14:23 44.30082 21.31730 40097 ft 435 kts 297°
2026-04-26 14:24 44.32740 21.24188 40095 ft 435 kts 297°
2026-04-26 14:24 44.35583 21.16715 40096 ft 435 kts 299°
2026-04-26 14:25 44.38454 21.09283 40096 ft 435 kts 299°
2026-04-26 14:25 44.41308 21.01840 40096 ft 435 kts 298°
2026-04-26 14:26 44.44140 20.94410 40096 ft 436 kts 298°
2026-04-26 14:26 44.46969 20.86961 40096 ft 436 kts 298°
2026-04-26 14:27 44.49814 20.79445 40098 ft 435 kts 298°
2026-04-26 14:27 44.52622 20.72010 40111 ft 435 kts 298°
2026-04-26 14:28 44.55432 20.64545 40118 ft 435 kts 298°
2026-04-26 14:28 44.58244 20.57053 40121 ft 435 kts 298°
2026-04-26 14:29 44.61041 20.49580 40122 ft 435 kts 298°
2026-04-26 14:29 44.63842 20.42079 40122 ft 435 kts 298°
2026-04-26 14:30 44.66636 20.34573 40122 ft 435 kts 298°
2026-04-26 14:30 44.69432 20.27016 40123 ft 435 kts 298°
2026-04-26 14:31 44.72215 20.19487 40121 ft 435 kts 297°
2026-04-26 14:31 44.75007 20.11922 40122 ft 436 kts 297°
2026-04-26 14:32 44.77792 20.04350 40121 ft 437 kts 298°
2026-04-26 14:32 44.80564 19.96800 40122 ft 438 kts 298°
2026-04-26 14:33 44.83354 19.89186 40122 ft 438 kts 298°
2026-04-26 14:33 44.86146 19.81541 40122 ft 438 kts 298°
2026-04-26 14:34 44.88908 19.73957 40122 ft 438 kts 298°
2026-04-26 14:34 44.91680 19.66331 40122 ft 437 kts 297°
2026-04-26 14:35 44.94437 19.58715 40122 ft 436 kts 297°
2026-04-26 14:35 44.97188 19.51095 40122 ft 436 kts 297°
2026-04-26 14:36 44.99926 19.43491 40121 ft 436 kts 297°
2026-04-26 14:36 45.02668 19.35853 40121 ft 436 kts 297°
2026-04-26 14:37 45.05400 19.28202 40123 ft 436 kts 297°
2026-04-26 14:37 45.08117 19.20577 40123 ft 436 kts 297°
2026-04-26 14:38 45.10841 19.12931 40123 ft 436 kts 297°
2026-04-26 14:38 45.13564 19.05253 40123 ft 436 kts 296°
2026-04-26 14:39 45.16164 18.97464 40122 ft 436 kts 295°
2026-04-26 14:39 45.18745 18.89647 40122 ft 436 kts 295°
2026-04-26 14:40 45.21295 18.81912 40122 ft 436 kts 295°
2026-04-26 14:40 45.23861 18.74100 40122 ft 436 kts 295°
2026-04-26 14:41 45.26418 18.66311 40130 ft 438 kts 296°
2026-04-26 14:41 45.29186 18.58642 40143 ft 437 kts 298°
2026-04-26 14:42 45.32022 18.51040 40148 ft 437 kts 298°
2026-04-26 14:42 45.34860 18.43395 40150 ft 437 kts 298°
2026-04-26 14:43 45.37661 18.35810 40150 ft 437 kts 298°
2026-04-26 14:43 45.40487 18.28110 40151 ft 437 kts 297°
2026-04-26 14:44 45.43294 18.20437 40150 ft 437 kts 297°
2026-04-26 14:44 45.46080 18.12816 40150 ft 437 kts 297°
2026-04-26 14:45 45.48885 18.05125 40150 ft 437 kts 297°
2026-04-26 14:45 45.51671 17.97467 40150 ft 437 kts 297°
2026-04-26 14:46 45.54453 17.89798 40150 ft 437 kts 297°
2026-04-26 14:46 45.57236 17.82101 40150 ft 437 kts 297°
2026-04-26 14:47 45.60017 17.74392 40150 ft 437 kts 297°
2026-04-26 14:47 45.62802 17.66649 40150 ft 437 kts 297°
2026-04-26 14:48 45.65567 17.58939 40161 ft 437 kts 297°
2026-04-26 14:48 45.68319 17.51246 40172 ft 437 kts 297°
2026-04-26 14:49 45.71077 17.43510 40177 ft 437 kts 297°
2026-04-26 14:49 45.73827 17.35777 40178 ft 437 kts 297°
2026-04-26 14:50 45.76574 17.28005 40178 ft 439 kts 297°
2026-04-26 14:50 45.79332 17.20181 40179 ft 440 kts 297°
2026-04-26 14:51 45.82081 17.12374 40179 ft 440 kts 297°
2026-04-26 14:51 45.84831 17.04548 40179 ft 440 kts 297°
2026-04-26 14:52 45.87561 16.96758 40178 ft 440 kts 297°
2026-04-26 14:52 45.90314 16.88877 40178 ft 440 kts 297°
2026-04-26 14:53 45.93030 16.81078 40178 ft 440 kts 297°
2026-04-26 14:53 45.95770 16.73191 40178 ft 440 kts 297°
2026-04-26 14:54 45.98481 16.65361 40178 ft 440 kts 297°
2026-04-26 14:54 46.01208 16.57463 40178 ft 440 kts 297°
2026-04-26 14:55 46.03920 16.49585 40166 ft 439 kts 297°
2026-04-26 14:55 46.06607 16.41754 40157 ft 439 kts 297°
2026-04-26 14:56 46.09306 16.33867 40153 ft 439 kts 296°
2026-04-26 14:56 46.12001 16.25985 40153 ft 439 kts 296°
2026-04-26 14:57 46.14685 16.18143 40152 ft 439 kts 296°
2026-04-26 14:57 46.17370 16.10238 40152 ft 439 kts 296°
2026-04-26 14:58 46.20037 16.02341 40152 ft 439 kts 296°
2026-04-26 14:58 46.22712 15.94384 40152 ft 439 kts 296°
2026-04-26 14:59 46.25355 15.86492 40152 ft 436 kts 297°
2026-04-26 14:59 46.28159 15.78754 40152 ft 436 kts 300°
2026-04-26 15:00 46.31100 15.71151 40152 ft 435 kts 300°
2026-04-26 15:00 46.34039 15.63526 40152 ft 435 kts 300°
2026-04-26 15:01 46.36980 15.55858 40152 ft 435 kts 300°
2026-04-26 15:01 46.39886 15.48255 40152 ft 435 kts 300°
2026-04-26 15:02 46.42809 15.40580 40152 ft 434 kts 300°
2026-04-26 15:02 46.45546 15.33371 40153 ft 434 kts 299°
2026-04-26 15:03 46.48441 15.25695 40152 ft 434 kts 299°
2026-04-26 15:04 46.54612 15.09303 40152 ft 434 kts 299°
2026-04-26 15:04 46.57485 15.01640 40152 ft 434 kts 299°
2026-04-26 15:05 46.60378 14.93906 40152 ft 435 kts 299°
2026-04-26 15:05 46.63090 14.86086 40152 ft 435 kts 297°
2026-04-26 15:06 46.65749 14.78185 40152 ft 435 kts 297°
2026-04-26 15:06 46.68385 14.70313 40152 ft 435 kts 297°
2026-04-26 15:07 46.72347 14.58438 40152 ft 432 kts 297°
2026-04-26 15:07 46.74932 14.50644 40152 ft 431 kts 297°
2026-04-26 15:08 46.77542 14.42757 40150 ft 430 kts 297°
2026-04-26 15:08 46.80121 14.34943 40125 ft 430 kts 296°
2026-04-26 15:09 46.82700 14.27082 40110 ft 430 kts 296°
2026-04-26 15:09 46.85275 14.19215 40102 ft 430 kts 296°
2026-04-26 15:10 46.87427 14.12629 40099 ft 430 kts 296°
2026-04-26 15:10 46.90424 14.03442 40098 ft 430 kts 296°
2026-04-26 15:11 46.92969 13.95613 40098 ft 430 kts 296°
2026-04-26 15:11 46.95524 13.87731 40097 ft 430 kts 296°
2026-04-26 15:12 46.98071 13.79851 40097 ft 430 kts 296°
2026-04-26 15:12 47.00573 13.72085 40097 ft 430 kts 296°
2026-04-26 15:13 47.03123 13.64147 40097 ft 430 kts 296°
2026-04-26 15:13 47.05644 13.56272 40097 ft 430 kts 296°
2026-04-26 15:14 47.08169 13.48364 40097 ft 430 kts 296°
2026-04-26 15:14 47.10696 13.40432 40098 ft 430 kts 296°
2026-04-26 15:15 47.13243 13.32487 40103 ft 430 kts 295°
2026-04-26 15:15 47.15749 13.24558 40150 ft 429 kts 296°
2026-04-26 15:16 47.18245 13.16632 40182 ft 427 kts 297°
2026-04-26 15:16 47.20748 13.08677 40197 ft 427 kts 296°
2026-04-26 15:17 47.22801 13.02130 40202 ft 427 kts 296°
2026-04-26 15:17 47.25699 12.92855 40206 ft 427 kts 296°
2026-04-26 15:18 47.30633 12.76978 40206 ft 427 kts 296°
2026-04-26 15:19 47.33088 12.69040 40207 ft 427 kts 296°
2026-04-26 15:19 47.35539 12.61090 40207 ft 427 kts 296°
2026-04-26 15:20 47.37996 12.53094 39858 ft 427 kts 297°
2026-04-26 15:20 47.39215 12.49114 39610 ft 427 kts 297°
2026-04-26 15:20 47.40440 12.45110 39361 ft 427 kts 297°
2026-04-26 15:21 47.41646 12.41160 39115 ft 427 kts 297°
2026-04-26 15:21 47.42875 12.37129 38865 ft 428 kts 297°
2026-04-26 15:21 47.44095 12.33140 38618 ft 429 kts 295°
2026-04-26 15:21 47.45312 12.29138 38368 ft 431 kts 294°
2026-04-26 15:22 47.46555 12.25041 38214 ft 439 kts 294°
2026-04-26 15:22 47.47804 12.20905 38210 ft 442 kts 294°
2026-04-26 15:22 47.50299 12.12609 38206 ft 443 kts 294°
2026-04-26 15:23 47.52699 12.04236 38204 ft 443 kts 290°
2026-04-26 15:23 47.54530 11.95541 38204 ft 443 kts 284°
2026-04-26 15:24 47.55839 11.86654 38206 ft 441 kts 282°
2026-04-26 15:24 47.56450 11.82241 38056 ft 433 kts 282°
2026-04-26 15:24 47.57048 11.77913 37643 ft 430 kts 282°
2026-04-26 15:25 47.57645 11.73588 37057 ft 431 kts 282°
2026-04-26 15:25 47.58045 11.70696 36632 ft 432 kts 282°
2026-04-26 15:25 47.58850 11.64879 35778 ft 434 kts 282°
2026-04-26 15:25 47.59454 11.60490 35144 ft 436 kts 282°
2026-04-26 15:26 47.60055 11.56098 34504 ft 437 kts 282°
2026-04-26 15:26 47.60657 11.51695 33853 ft 439 kts 282°
2026-04-26 15:26 47.61260 11.47263 33386 ft 438 kts 282°
2026-04-26 15:26 47.61861 11.42850 33117 ft 441 kts 282°
2026-04-26 15:27 47.62458 11.38404 32799 ft 442 kts 281°
2026-04-26 15:27 47.62998 11.34107 32491 ft 442 kts 280°
2026-04-26 15:27 47.63547 11.29589 31952 ft 444 kts 280°
2026-04-26 15:27 47.64089 11.25089 31366 ft 444 kts 280°
2026-04-26 15:28 47.64634 11.20560 30756 ft 445 kts 279°
2026-04-26 15:28 47.65167 11.16124 30119 ft 446 kts 280°
2026-04-26 15:28 47.65709 11.11575 29369 ft 450 kts 280°
2026-04-26 15:28 47.66257 11.06976 28564 ft 454 kts 280°
2026-04-26 15:29 47.66799 11.02420 27978 ft 452 kts 279°
2026-04-26 15:29 47.67343 10.97828 27482 ft 448 kts 280°
2026-04-26 15:29 47.68403 10.88850 26616 ft 438 kts 280°
2026-04-26 15:30 47.69435 10.80044 25837 ft 427 kts 279°
2026-04-26 15:30 47.69936 10.75745 25439 ft 423 kts 279°
2026-04-26 15:30 47.70433 10.71472 25038 ft 418 kts 279°
2026-04-26 15:31 47.70924 10.67263 24641 ft 415 kts 279°
2026-04-26 15:31 47.71892 10.58869 23827 ft 408 kts 279°
2026-04-26 15:31 47.72366 10.54716 23336 ft 408 kts 279°
2026-04-26 15:32 47.72996 10.49180 22638 ft 409 kts 279°
2026-04-26 15:32 47.73777 10.42304 21902 ft 405 kts 279°
2026-04-26 15:32 47.74180 10.38202 21494 ft 402 kts 276°
2026-04-26 15:33 47.74419 10.34058 21083 ft 399 kts 272°
2026-04-26 15:33 47.74484 10.29953 20677 ft 397 kts 269°
2026-04-26 15:33 47.74414 10.25888 20279 ft 394 kts 268°
2026-04-26 15:33 47.74318 10.21850 19880 ft 391 kts 267°
2026-04-26 15:34 47.74219 10.17831 19484 ft 389 kts 267°
2026-04-26 15:34 47.74121 10.13862 19090 ft 386 kts 268°
2026-04-26 15:34 47.74023 10.09862 18693 ft 384 kts 268°
2026-04-26 15:34 47.73929 10.05957 18306 ft 382 kts 267°
2026-04-26 15:35 47.73831 10.02030 17913 ft 379 kts 267°
2026-04-26 15:35 47.73733 9.98117 17522 ft 377 kts 267°
2026-04-26 15:35 47.73638 9.94236 17132 ft 375 kts 267°
2026-04-26 15:35 47.73543 9.90367 16743 ft 373 kts 267°
2026-04-26 15:36 47.73446 9.86526 16356 ft 371 kts 267°
2026-04-26 15:36 47.73347 9.82692 15966 ft 370 kts 267°
2026-04-26 15:36 47.73248 9.78937 15583 ft 368 kts 267°
2026-04-26 15:36 47.73147 9.75144 15192 ft 366 kts 267°
2026-04-26 15:37 47.73044 9.71356 14797 ft 365 kts 267°
2026-04-26 15:37 47.72944 9.67628 14409 ft 363 kts 267°
2026-04-26 15:37 47.72840 9.63867 14015 ft 362 kts 267°
2026-04-26 15:37 47.72735 9.60171 13577 ft 362 kts 267°
2026-04-26 15:38 47.72630 9.56453 13155 ft 361 kts 267°
2026-04-26 15:38 47.72524 9.52749 12721 ft 359 kts 267°
2026-04-26 15:38 47.72414 9.48987 11922 ft 367 kts 267°
2026-04-26 15:38 47.72180 9.45242 11165 ft 371 kts 258°
2026-04-26 15:39 47.71336 9.41644 10619 ft 368 kts 243°
2026-04-26 15:39 47.69939 9.38493 10125 ft 365 kts 232°
2026-04-26 15:39 47.68340 9.35569 9643 ft 362 kts 231°
2026-04-26 15:39 47.67284 9.33685 9498 ft 355 kts 230°
2026-04-26 15:40 47.65220 9.29985 9245 ft 341 kts 230°
2026-04-26 15:40 47.63738 9.27309 9060 ft 331 kts 231°
2026-04-26 15:40 47.62302 9.24706 8883 ft 321 kts 231°
2026-04-26 15:40 47.60926 9.22209 8711 ft 312 kts 231°
2026-04-26 15:41 47.59690 9.19619 8534 ft 303 kts 243°
2026-04-26 15:41 47.58961 9.16741 8340 ft 294 kts 258°
2026-04-26 15:41 47.58566 9.13809 8041 ft 290 kts 261°
2026-04-26 15:41 47.58225 9.10831 7684 ft 290 kts 261°
2026-04-26 15:42 47.57886 9.07896 7343 ft 288 kts 261°
2026-04-26 15:42 47.57545 9.05019 7199 ft 279 kts 261°
2026-04-26 15:42 47.57134 9.02288 7185 ft 266 kts 252°
2026-04-26 15:42 47.56463 8.99805 7184 ft 254 kts 246°
2026-04-26 15:43 47.55727 8.97431 7188 ft 253 kts 246°
2026-04-26 15:43 47.54990 8.95044 7190 ft 253 kts 246°
2026-04-26 15:43 47.53571 8.90265 7191 ft 253 kts 247°
2026-04-26 15:44 47.52877 8.87870 7190 ft 253 kts 250°
2026-04-26 15:44 47.53321 8.83084 7187 ft 245 kts 316°
2026-04-26 15:44 47.54720 8.81712 7191 ft 239 kts 347°
2026-04-26 15:45 47.57772 8.82699 7192 ft 233 kts 45°
2026-04-26 15:45 47.58633 8.84672 7191 ft 234 kts 73°
2026-04-26 15:46 47.58554 8.89443 7197 ft 236 kts 96°
2026-04-26 15:46 47.58344 8.91848 7194 ft 236 kts 95°
2026-04-26 15:46 47.58139 8.94245 7193 ft 236 kts 95°
2026-04-26 15:46 47.58071 8.95053 7193 ft 236 kts 95°
2026-04-26 15:47 47.57738 8.99091 7192 ft 236 kts 95°
2026-04-26 15:47 47.57343 9.03919 7191 ft 236 kts 96°
2026-04-26 15:47 47.56796 9.06205 7174 ft 241 kts 128°
2026-04-26 15:48 47.55448 9.07665 7186 ft 247 kts 160°
2026-04-26 15:48 47.53754 9.07883 7186 ft 251 kts 192°
2026-04-26 15:48 47.52199 9.06740 7189 ft 253 kts 224°
2026-04-26 15:48 47.51273 9.04547 7191 ft 253 kts 258°
2026-04-26 15:49 47.51218 9.02001 7203 ft 250 kts 278°
2026-04-26 15:49 47.51458 8.99432 7198 ft 250 kts 280°
2026-04-26 15:49 47.51708 8.96902 7194 ft 250 kts 280°
2026-04-26 15:49 47.51944 8.94339 7193 ft 250 kts 279°
2026-04-26 15:50 47.52225 8.91797 7186 ft 251 kts 292°
2026-04-26 15:50 47.53235 8.89642 7203 ft 270 kts 320°
2026-04-26 15:50 47.54658 8.87778 7203 ft 278 kts 320°
2026-04-26 15:50 47.56104 8.85848 7187 ft 278 kts 320°
2026-04-26 15:51 47.57527 8.83911 6908 ft 276 kts 319°
2026-04-26 15:51 47.58769 8.81733 6490 ft 281 kts 300°
2026-04-26 15:51 47.59286 8.78963 6061 ft 286 kts 275°
2026-04-26 15:51 47.59348 8.76022 5723 ft 285 kts 272°
2026-04-26 15:52 47.59376 8.73092 5416 ft 283 kts 272°
2026-04-26 15:52 47.59394 8.70165 5133 ft 280 kts 272°
2026-04-26 15:52 47.59419 8.67320 4859 ft 278 kts 273°
2026-04-26 15:52 47.59441 8.65406 4677 ft 276 kts 273°
2026-04-26 15:53 47.59487 8.61643 4322 ft 273 kts 273°
2026-04-26 15:53 47.59519 8.58843 4078 ft 269 kts 273°
2026-04-26 15:53 47.59549 8.56117 4015 ft 258 kts 273°
2026-04-26 15:53 47.59575 8.53521 3999 ft 244 kts 273°
2026-04-26 15:54 47.59599 8.51087 3992 ft 232 kts 273°
2026-04-26 15:54 47.59472 8.48725 3979 ft 232 kts 249°
2026-04-26 15:54 47.58476 8.46905 3978 ft 232 kts 206°
2026-04-26 15:54 47.56972 8.46504 3995 ft 211 kts 166°
2026-04-26 15:55 47.55745 8.47357 3975 ft 182 kts 144°
2026-04-26 15:55 47.54743 8.48316 3917 ft 168 kts 145°
2026-04-26 15:55 47.53712 8.49176 3412 ft 174 kts 150°
2026-04-26 15:55 47.52616 8.49972 2899 ft 178 kts 150°
2026-04-26 15:56 47.51502 8.50775 2389 ft 183 kts 150°
2026-04-26 15:56 47.50390 8.51623 2070 ft 172 kts 150°
2026-04-26 15:56 47.49372 8.52361 1858 ft 158 kts 153°
2026-04-26 15:56 47.48385 8.53020 1654 ft 154 kts 153°
2026-04-26 15:57 47.47423 8.53692 1447 ft 152 kts 152°
2026-04-26 15:57 47.46597 8.54266 1434 ft 101 kts 154°
2026-04-26 15:57 47.46159 8.54563 1434 ft 37 kts 157°
2026-04-26 15:57 47.46035 8.54647 1434 ft 27 kts 152°
2026-04-26 15:58 47.45923 8.54833 1434 ft 16 kts 99°
2026-04-26 15:58 47.45916 8.54955 1434 ft 7 kts 91°
2026-04-26 15:58 47.45911 8.55048 1434 ft 10 kts 95°
2026-04-26 15:58 47.45937 8.55126 1434 ft 10 kts 45°
2026-04-26 15:59 47.45971 8.55183 1434 ft 5 kts 60°
2026-04-26 15:59 47.45992 8.55221 1434 ft 4 kts 33°
2026-04-26 15:59 47.46033 8.55236 1434 ft 7 kts
2026-04-26 15:59 47.46060 8.55241 1434 ft 0 kts